Regional Weather Roundup
Issued by NWS Boston, MA

Home | Current Version | Previous Version | Text Only | Print | Product List | Glossary On
Versions: 1 2 3 4 5 6 7 8 9 10 11 12 13 14 15 16 17 18 19 20 21 22 23 24 25 26 27 28 29 30 31 32 33 34 35 36 37 38 39 40 41 42 43 44 45 46 47 48 49 50
000
ASUS41 KBOX 270710
RWRBOX

REGIONAL WEATHER ROUNDUP
NATIONAL WEATHER SERVICE TAUNTON MA
200 AM EST FRI FEB 27 2015

NOTE:  "FAIR" INDICATES FEW OR NO CLOUDS BELOW 12,000 FEET WITH NO
SIGNIFICANT WEATHER AND/OR OBSTRUCTIONS TO VISIBILITY.  THE FOLLOWING
OBSERVATION LOCATIONS DO NOT REPORT PRESENT WEATHER...PROVINCETOWN...
SMITHFIELD...BLOCK ISLAND...KEENE...AND OXFORD.

MAZALL-270800-
EASTERN MASSACHUSETTS

CITY           SKY/WX    TMP DP  RH WIND       PRES   REMARKS
BOSTON         PTCLDY    18   0  45 NW7       30.16R WCI   9
BEVERLY        CLOUDY    17  -4  39 NW7       30.14R WCI   8
LAWRENCE       PTCLDY    16  -3  43 W6        30.16R WCI   7
BEDFORD        MOCLDY    12  -2  53 NW5       30.15R WCI   4
BLUE HILL        N/A     15   0  51 N10       30.08S WCI   2
NORWOOD        MOCLDY     1  -1  91 CALM      30.15R
MARSHFIELD     PTCLDY    18  10  73 W5        30.16R WCI  11
PLYMOUTH       PTCLDY    15   9  76 NW7       30.14R WCI   5
TAUNTON        PTCLDY     6   2  83 CALM      30.14R
NEW BEDFORD    PTCLDY    11   7  84 CALM      30.14R
$$

MAZALL-270800-
CAPE COD AND THE ISLANDS

CITY           SKY/WX    TMP DP  RH WIND       PRES   REMARKS
FALMOUTH       PTCLDY    16   9  73 NW6       30.13R WCI   7
HYANNIS        CLEAR     21  11  65 N3        30.11R
CHATHAM        CLEAR     19  12  74 CALM      30.12R
PROVINCETOWN   CLEAR     25   9  50 N7        30.13R WCI  17
NANTUCKET      PTCLDY    24  14  65 N10       30.11R WCI  14
MARTHAS VNYRD  PTCLDY    16   8  71 NW6       30.12R WCI   7
$$

MAZALL-270800-
CENTRAL AND WESTERN MASSACHUSETTS

CITY           SKY/WX    TMP DP  RH WIND       PRES   REMARKS
WORCESTER      MOCLDY    13  -4  46 NW9       30.08R WCI   1
FITCHBURG      CLOUDY    16  -2  45 NW6       30.15R WCI   7
ORANGE         MOCLDY    13  -4  46 N5        30.14R WCI   5
SPRINGFIELD    CLOUDY     9  -1  64 NW2       30.16R
WESTFIELD      CLOUDY    11   0  61 CALM      30.16R
NORTH ADAMS    CLOUDY     8  -3  61 W6        30.16R WCI  -2
PITTSFIELD     CLOUDY     8   0  69 CALM      30.08R
$$

RIZALL-270800-
RHODE ISLAND

CITY           SKY/WX    TMP DP  RH WIND       PRES   REMARKS
PROVIDENCE     CLEAR     12   8  84 CALM      30.15R
NEWPORT        CLEAR      9   6  88 CALM      30.14R
BLOCK ISLAND   CLEAR     19  10  68 CALM      30.13R
SMITHFIELD     CLEAR      9   3  78 N3        30.10R
WESTERLY       CLEAR     12   8  84 CALM      30.16R
$$

CTZALL-270800-
CONNECTICUT

CITY           SKY/WX    TMP DP  RH WIND       PRES   REMARKS
BRADLEY INTL   PTCLDY    15  -1  49 NW3       30.16R
HARTFORD       PTCLDY    18   0  45 N7        30.18R WCI   9
BRIDGEPORT     PTCLDY    18   2  49 N7        30.18R WCI   9
DANBURY        CLEAR      7  -1  70 CALM      30.17R
GROTON         CLEAR     13  11  92 NE3       30.16R
NEW HAVEN      CLEAR     19   1  45 N6        30.17R WCI  11
CHESTER        FAIR      19   5  53 NW6       30.14R WCI  11
MERIDEN        PTCLDY    16  -1  47 N5        30.18R WCI   9
WILLIMANTIC    CLEAR     10   6  84 CALM      30.16R
OXFORD         CLEAR     12  -4  48 N8        30.13R WCI   1
$$

MEZ002-015-021-024-NHZ003-005-008-011-012-014-VTZ005-008-270800-
NORTHERN NEW ENGLAND

CITY           SKY/WX    TMP DP  RH WIND       PRES   REMARKS
PORTLAND ME    MOCLDY    15  -3  44 N5        30.16R WCI   8
BANGOR ME      MOCLDY     6  -8  52 NW7       30.14R WCI  -6
CONCORD NH     CLOUDY    13  -5  44 W8        30.14R WCI   2
MANCHESTER NH  CLOUDY    15  -2  46 NW8       30.14R WCI   4
NASHUA NH      MOCLDY    16  -3  42 CALM      30.16R
PORTSMOUTH NH  MOCLDY    15  -1  49 W6        30.13R WCI   6
JAFFREY NH     CLOUDY    11  -4  51 VRB3      30.08S
KEENE NH       MOCLDY    12  -4  48 NW5       30.14S WCI   4
BURLINGTON VT  PTCLDY     1  -9  62 CALM      30.22R
MT. WASHINGTON CLOUDY    -6 -15  65 NW28        N/A  WCI -33
$$

NYZ052-076-270800-
EASTERN NEW YORK

CITY           SKY/WX    TMP DP  RH WIND       PRES   REMARKS
ALBANY         CLOUDY     9  -5  53 N7        30.23R WCI  -2
NEW YORK CITY  MOCLDY    22   8  55 N6        30.19R WCI  14
$$

ANZALL-270800-
MARINE OBSERVATIONS

STATION/POSITION TIME  TEMP    WIND        PRES    VSBY  WAVE
                       AIR SEA DIR/SP/G                  HT/PER
                 (UTC) (F)     (DEG/KT/KT) (MB)    (MI)  (FT/S)
BOSTON BUOY      0650   22 36  320/ 14/ 16 1021.0R         4/ 6
BUZZARDS BAY     0600          340/  9/ 11 1020.7R
NANTUCKET SOUND  0650   26 31  350/ 12/ 16 1020.1R         1/ 7
MASS BAY-STELLWA 0604   23 37  310/ 10/ 14   N/A    1 7/8  4/11
ISLE OF SHOALS   0700   19     310/ 12/ 14 1019.9R
S OF BLOCK IS    0608      37                N/A           4/11
$$

......................KEY.........................
  SKY/WX - SKY CONDITION/PRESENT WEATHER
  TMP    - TEMPERATURE IN FAHRENHEIT
  DWPT   - DEWPOINT IN FAHRENHEIT
  RH     - RELATIVE HUMIDITY IN PERCENT
  WIND   - DIRECTION AND SPEED IN MPH
  PRES   - MEAN SEA LEVEL PRESSURE IN INCHES OF HG
  WCI    - WIND CHILL INDEX
  VSB    - VISIBILITY IN MILES
  HX     - HEAT INDEX
  TC     - TEMPERATURE IN CELSIUS
  VRB    - VARIABLE WIND DIRECTION
  N/A    - NOT AVAILABLE


USA.gov is the U.S. government's official web portal to all federal, state and local government web resources and services.